Regional Weather Roundup
Issued by NWS

Home | Current Version | Previous Version | Text Only | Print | Product List | Glossary On
Versions: 1 2 3 4 5 6 7 8 9 10 11 12 13 14 15 16 17 18 19 20 21 22 23 24 25 26 27 28 29 30 31 32 33 34 35 36 37 38 39 40 41 42 43 44 45 46 47 48 49 50
000
ASUS45 KPSR 211310
RWRAZ

ARIZONA REGIONAL HOURLY WEATHER ROUNDUP
NATIONAL WEATHER SERVICE PHOENIX AZ
600 AM MST MON APR 21 2014

NOTE: FAIR INDICATES FEW OR NO CLOUDS BELOW 12,000 FEET WITH NO
SIGNIFICANT WEATHER AND/OR OBSTRUCTIONS TO VISIBILITY.

AZZ001>003-036-211400-
NORTHWEST ARIZONA

CITY           SKY/WX    TMP DP  RH WIND       PRES   REMARKS
BULLHEAD CITY  CLEAR     72  37  28 CALM      29.98R
KINGMAN        CLEAR     60  33  36 CALM      30.10S
$$

AZZ004>008-015-016-018-211400-
NORTH CENTRAL ARIZONA

CITY           SKY/WX    TMP DP  RH WIND       PRES   REMARKS
GRAND CANYON   CLEAR     32  28  85 CALM      30.29R
WILLIAMS       CLEAR     36  28  75 SE9       30.36R WCI  29
PRESCOTT       CLEAR     49  33  54 S6        30.20R
FLAGSTAFF      CLEAR     35  31  85 CALM      30.29S
PAYSON         CLEAR     50  36  57 CALM      30.22R
PAGE           PTCLDY    56  34  43 CALM      30.17R
$$

AZZ009>014-017-211400-
NORTHEAST ARIZONA

CITY           SKY/WX    TMP DP  RH WIND       PRES   REMARKS
WINSLOW        PTCLDY    47  35  63 S5        30.20R
SAINT JOHNS    CLEAR     46  32  58 S7        30.23R
WINDOW ROCK    CLEAR     35  26  69 S5        30.28R WCI  31
SHOW LOW       CLEAR     39  32  75 S5        30.29R
$$

AZZ023-211400-
GREATER PHOENIX AREA

CITY           SKY/WX    TMP DP  RH WIND       PRES   REMARKS
PHOENIX        PTCLDY    70  41  34 E3        29.99R
BUCKEYE          N/A     64  37  36 E7        30.00R
GLENDALE       CLEAR     64  36  34 CALM      30.01
LUKE AFB       NOT AVBL
DEER VALLEY    CLEAR     66  34  30 E5        30.00S
SCOTTSDALE     CLEAR     66  42  41 CALM      30.03R
MESA-FALCON    CLEAR     66  36  32 NE6       30.01
MESA-GATEWAY   CLEAR     61  32  33 E6        30.03R
CHANDLER       CLEAR     61  45  55 NE6       30.01
$$

AZZ027-028-211400-
SOUTHWEST MARICOPA COUNTY AND PINAL COUNTY

CITY           SKY/WX    TMP DP  RH WIND       PRES   REMARKS
CASA GRANDE    CLEAR     57  28  33 CALM      30.03R
$$

AZZ503-504-507>509-211400-
SOUTHEAST ARIZONA

CITY           SKY/WX    TMP DP  RH WIND       PRES   REMARKS
TUCSON         CLEAR     59  34  39 SE5       30.10R
DAVIS-MONTHAN  CLEAR     59  35  41 S6        30.09R
RYAN FIELD       N/A     55  34  44 CALM      30.10
NOGALES        CLEAR     49  34  56 NE3       30.14R
SIERRA VISTA   CLEAR     57  34  41 S7        30.18R
DOUGLAS        CLEAR     45  34  65 CALM      30.16R
SAFFORD        CLEAR     52  30  43 CALM      30.10R
$$

AZZ020-021-025-026-031-211400-
SOUTHWEST ARIZONA

CITY           SKY/WX    TMP DP  RH WIND       PRES   REMARKS
YUMA           CLEAR     67  42  40 CALM      29.94S
$$

CAZ031-033-041-043-047-048-061-211400-
SOUTHERN CALIFORNIA

CITY           SKY/WX    TMP DP  RH WIND       PRES   REMARKS
DOWNTOWN L.A.  MOCLDY    57  54  89 CALM      30.02S
L.A. AIRPORT   PTCLDY    58  55  90 CALM      30.03S FOG
SAN DIEGO      CLOUDY    61  56  83 CALM      30.03F
BURBANK        CLEAR     58  49  72 CALM      30.02S
ONTARIO        CLEAR     57  52  83 CALM      30.02S
RIVERSIDE      CLEAR     56  50  80 W3        30.03S
PALM SPRINGS   CLEAR     73  47  39 NW12      29.97S
EL CENTRO NAS  CLEAR     64  45  49 S5        29.93R
IMPERIAL       CLEAR     66  43  43 SW3       29.92S
BLYTHE         CLEAR     66  38  35 N5        29.95S
NEEDLES        CLEAR     71  36  27 NW7       29.97R
$$

NVZ020-UTZ003-211400-
SOUTHERN NEVADA-UTAH

CITY           SKY/WX    TMP DP  RH WIND       PRES   REMARKS
LAS VEGAS      PTCLDY    69  33  26 SW7       29.98R
SALT LAKE CITY PTCLDY    41  29  62 S6        30.21R
$$

NMZ009-TXZ055-211400-
NEW MEXICO-WEST TEXAS

CITY           SKY/WX    TMP DP  RH WIND       PRES   REMARKS
ALBUQUERQUE    CLEAR     52  35  52 E8        30.22R
EL PASO        PTCLDY    56  41  57 SE6       30.12R
$$


........................KEY........................
SKY/WX - SKY CONDITION/WEATHER
TMP    - TEMPERATURE IN FAHRENHEIT
DP     - DEW POINT IN FAHRENHEIT
RH     - RELATIVE HUMIDITY IN PERCENT
WIND   - DIRECTION AND SPEED IN MILES PER HOUR (MPH)
VRB    - VARIABLE WIND DIRECTION
PRES   - MEAN SEA LEVEL PRESSURE IN INCHES OF MERCURY
         F - FALLING PRESSURE   R - RISING PRESSURE
         S - STEADY PRESSURE
VSB    - VISIBILITY IN MILES
HX     - HEAT INDEX IN FAHRENHEIT
WCI    - WIND CHILL INDEX IN FAHRENHEIT
TC     - TEMPERATURE IN CELSIUS WHICH IS ALSO KNOWN AS
         TEMPERATURE IN CENTIGRADE
AFB    - AIR FORCE BASE
         LUKE AFB IS LUKE AIR FORCE BASE
         DAVIS-MONTHAN IS DAVIS-MONTHAN AIR FORCE BASE
NAS    - NAVAL AIR STATION
         EL CENTRO NAS IS EL CENTRO NAVAL AIR STATION
N/A    - NOT AVAILABLE



USA.gov is the U.S. government's official web portal to all federal, state and local government web resources and services.